Tracking 19247 objects as of 24-Sep-2018
HD Live streaming from Space Station
objects crossing your sky now

DELTA 1 R/B

Track DELTA 1 R/B now!
10-day predictions
DELTA 1 R/B is classified as:


NORAD ID: 20323
Int'l Code: 1989-089B
Perigee: 686.4 km
Apogee: 790.5 km
Inclination: 97.1 °
Period: 99.4 minutes
Semi major axis: 7109 km
RCS: 8.9124 m2 (large)
Launch date: November 18, 1989
Source: United States (US)
Launch site: AIR FORCE WESTERN TEST RANGE (AFWTR)

Note: This is a ROCKET BODY
aabbcc
Your satellite tracking list
Your tracking list is empty




NASA's NSSDC Master Catalog

Two Line Element Set (TLE):
1 20323U 89089B   18266.65300426 +.00000044 +00000-0 +20394-4 0  9993
2 20323 097.0983 144.7192 0073236 063.6059 297.2631 14.48271180501277
Source of the keplerian elements: AFSPC